Notices

What's New in latest Release from April 7th, 2021:

- Updated Glossary, including Speed of Maximum Gust, and Total Hourly Precipitation

- Updated national and regional climate services offices contacts and prices information

- Addition of station inventory lists for 1981-2010, 1971-2000, and 1961-1990 Normals.

If you haven't already, please take our survey and provide feedback about our website: https://eccc.sondage-survey.ca/f/LanguageSelection.aspx?s=442ca660-fcf1-47c0-95a9-59707d6fd709

Hourly Data Report for April 06, 2021

CORNER BROOK
NEWFOUNDLAND
Current Station Operator: ECCC - MSC

48°56'00.000" N
57°55'00.000" W
151.80 m
8401298
71973
WKB

Download Data

Hourly Data (April 2021)
Hourly Data Report for April 6, 2021
TIME
LST
Temp Definition
°C
Dew Point Definition
°C
Rel Hum Definition
%
Precip. Amount Definition
mm

Wind Dir Definition
10's deg

Wind Spd Definition
km/h
Visibility Definition
km
Stn Press Definition
kPa
Hmdx Definition


Wind Chill Definition


Weather Definition


00:30 3.5 2.5 93 0.0 9 8   99.40     LegendNANA
01:30 3.4 2.3 93 0.0 7 9   99.40     LegendNANA
02:30 3.2 2.1 92 0.0 7 9   99.34     LegendNANA
03:30 3.1 2.0 92 0.0 8 13   99.33     LegendNANA
04:30 3.3 2.2 93 0.0 7 26   99.31     LegendNANA
05:30 3.4 2.3 92 0.6 8 20   99.36     LegendNANA
06:30 3.4 2.3 93 0.0 7 20   99.40     LegendNANA
07:30 3.7 2.6 93 0.0 8 21   99.43     LegendNANA
08:30 3.8 2.8 93 0.0 8 23   99.42     LegendNANA
09:30 3.9 2.9 93 0.0 7 26   99.44     LegendNANA
10:30 4.6 3.5 93 0.0 7 26   99.49     LegendNANA
11:30 5.2 4.0 92 0.0 7 27   99.45     LegendNANA
12:30 5.6 4.3 91 0.0 7 22   99.41     LegendNANA
13:30 5.9 4.7 92 0.6 7 20   99.40     LegendNANA
14:30 5.6 4.4 92 0.0 6 20   99.37     LegendNANA
15:30 5.8 4.6 92 0.0 7 23   99.36     LegendNANA
16:30 5.8 4.7 92 0.0 8 25   99.35     LegendNANA
17:30 5.0 3.9 93 1.4 8 27   99.39     LegendNANA
18:30 4.2 3.1 93 0.8 8 30   99.40     LegendNANA
19:30 3.7 2.7 93 0.0 8 27   99.44     LegendNANA
20:30 3.5 2.6 94 0.0 8 32   99.45     LegendNANA
21:30 3.1 2.3 94 0.8 8 32   99.44     LegendNANA
22:30 3.0 2.2 94 0.0 7 32   99.49     LegendNANA
23:30 2.7 1.9 94 0.0 8 30   99.47     LegendNANA

Notes on Data Quality.

Legend

  • E = Estimated
  • M = Missing
  • NA = Not Available*
  • [empty] = Indicates an unobserved value
Date modified: